TimeEST,TemperatureF,Dew PointF,Humidity,Sea Level PressureIn,VisibilityMPH,Wind Direction,Wind SpeedMPH,Gust SpeedMPH,PrecipitationIn,Events,Conditions,WindDirDegrees,DateUTC
12:53 AM,28.9,27.0,92,30.57,0.2,Calm,Calm,-,N/A,Fog,Light Freezing Fog,0,2013-01-10 05:53:00
1:50 AM,28.4,26.6,93,30.56,0.5,Calm,Calm,-,N/A,Fog,Light Freezing Fog,0,2013-01-10 06:50:00
1:53 AM,28.0,27.0,96,30.58,0.5,Calm,Calm,-,N/A,Fog,Light Freezing Fog,0,2013-01-10 06:53:00
2:09 AM,28.4,26.6,93,30.56,0.2,Calm,Calm,-,N/A,Fog,Light Freezing Fog,0,2013-01-10 07:09:00
2:53 AM,27.0,26.1,96,30.57,0.2,Calm,Calm,-,N/A,Fog,Light Freezing Fog,0,2013-01-10 07:53:00
3:53 AM,26.1,25.0,96,30.56,0.2,Calm,Calm,-,N/A,Fog,Light Freezing Fog,0,2013-01-10 08:53:00
4:53 AM,26.1,23.0,88,30.56,0.2,Calm,Calm,-,N/A,Fog,Light Freezing Fog,0,2013-01-10 09:53:00
5:53 AM,26.1,24.1,92,30.56,0.2,Calm,Calm,-,N/A,Fog,Light Freezing Fog,0,2013-01-10 10:53:00
6:53 AM,26.1,23.0,88,30.58,0.2,Calm,Calm,-,N/A,Fog,Light Freezing Fog,0,2013-01-10 11:53:00
7:53 AM,28.9,25.0,85,30.61,0.2,Calm,Calm,-,N/A,Fog,Light Freezing Fog,0,2013-01-10 12:53:00
8:53 AM,30.0,26.1,85,30.63,0.2,Calm,Calm,-,N/A,Fog,Light Freezing Fog,0,2013-01-10 13:53:00
9:14 AM,30.2,28.4,93,30.61,0.2,Calm,Calm,-,N/A,Fog,Light Freezing Fog,0,2013-01-10 14:14:00
9:53 AM,32.0,28.0,85,30.63,0.1,NE,3.5,-,N/A,Fog,Fog,50,2013-01-10 14:53:00
10:45 AM,32.0,30.2,93,30.58,0.8,Calm,Calm,-,N/A,,Mostly Cloudy,0,2013-01-10 15:45:00
10:53 AM,32.0,30.9,96,30.61,3.0,Calm,Calm,-,N/A,,Scattered Clouds,0,2013-01-10 15:53:00
11:53 AM,36.0,34.0,93,30.57,8.0,NE,3.5,-,N/A,,Clear,50,2013-01-10 16:53:00
12:53 PM,39.9,34.0,79,30.55,9.0,ENE,4.6,-,N/A,,Clear,60,2013-01-10 17:53:00
1:53 PM,42.1,34.0,73,30.52,10.0,ENE,4.6,-,N/A,,Clear,60,2013-01-10 18:53:00
2:53 PM,42.1,34.0,73,30.49,10.0,NE,6.9,-,N/A,,Clear,50,2013-01-10 19:53:00
3:53 PM,43.0,33.1,68,30.46,10.0,Calm,Calm,-,N/A,,Clear,0,2013-01-10 20:53:00
4:53 PM,43.0,33.1,68,30.45,10.0,East,4.6,-,N/A,,Partly Cloudy,100,2013-01-10 21:53:00
5:53 PM,42.1,33.1,70,30.43,10.0,ENE,3.5,-,N/A,,Mostly Cloudy,70,2013-01-10 22:53:00
6:53 PM,43.0,33.1,68,30.40,10.0,ENE,4.6,-,N/A,,Overcast,60,2013-01-10 23:53:00
7:53 PM,43.0,32.0,65,30.37,10.0,ENE,4.6,-,N/A,,Clear,60,2013-01-11 00:53:00
8:53 PM,43.0,32.0,65,30.35,10.0,East,4.6,-,N/A,,Overcast,80,2013-01-11 01:53:00
9:53 PM,43.0,32.0,65,30.32,10.0,East,3.5,-,N/A,,Scattered Clouds,80,2013-01-11 02:53:00
10:53 PM,42.1,32.0,67,30.29,10.0,East,3.5,-,N/A,,Clear,90,2013-01-11 03:53:00
11:53 PM,42.1,32.0,67,30.26,10.0,East,3.5,-,N/A,,Scattered Clouds,90,2013-01-11 04:53:00